カタログに戻る

CZ-3 DEB

LostHEO
NORAD 26785·DEBRIS·🇨🇳 China

打ち上げ Apr 8, 1984 から Xichang Satellite Launch Center

Loading…

次のパス (今後24時間)

TLE

古いSource: Space-Track

元期: Jun 4, 2026, 23:11 UTC

1 26785U 84035C   26155.96625349  .00001757  00000-0  36433-2 0  9992
2 26785  30.2897 101.0706 6674847 261.2398  23.7372  2.97214729244273

AllMySatでCZ-3 DEBをリアルタイム追跡

Download on the App Store